Time,TemperatureF,DewpointF,PressureIn,WindDirection,WindDirectionDegrees,WindSpeedMPH,WindSpeedGustMPH,Humidity,HourlyPrecipIn,Conditions,Clouds,dailyrainin,SolarRadiationWatts/m^2,SoftwareType,DateUTC
2013-03-07 00:00:00,40.6,37.6,29.99,SW,224,0.0,0.0,89,0.00,,,0.00,0,Wunderground v.1.15,2013-03-07 08:00:00,
2013-03-07 00:45:00,39.1,36.7,29.99,SW,224,0.0,0.0,91,0.00,,,0.00,0,Wunderground v.1.15,2013-03-07 08:45:00,
2013-03-07 00:55:00,39.1,37.0,29.99,SW,224,0.0,0.0,92,0.00,,,0.00,0,Wunderground v.1.15,2013-03-07 08:55:00,
2013-03-07 03:30:00,38.0,35.9,29.96,WSW,251,1.0,1.0,92,0.00,,,0.00,0,Wunderground v.1.15,2013-03-07 11:30:00,
2013-03-07 03:40:00,37.9,35.8,29.96,WSW,251,0.0,1.0,92,0.00,,,0.00,0,Wunderground v.1.15,2013-03-07 11:40:00,
2013-03-07 04:00:00,38.0,35.9,29.95,WSW,251,0.0,1.0,92,0.00,,,0.00,0,Wunderground v.1.15,2013-03-07 12:00:00,
2013-03-07 04:10:00,38.2,36.1,29.96,WSW,252,0.0,1.0,92,0.00,,,0.00,0,Wunderground v.1.15,2013-03-07 12:10:00,
2013-03-07 04:20:00,38.4,36.3,29.96,WSW,252,0.0,1.0,92,0.00,,,0.00,0,Wunderground v.1.15,2013-03-07 12:20:00,
2013-03-07 04:30:00,38.4,36.0,29.96,WSW,252,0.0,1.0,91,0.00,,,0.00,0,Wunderground v.1.15,2013-03-07 12:30:00,
2013-03-07 06:24:00,38.1,35.4,29.94,ENE,65,1.0,1.0,90,0.00,,,0.00,0,Wunderground v.1.15,2013-03-07 14:24:00,
2013-03-07 06:30:00,38.2,35.8,29.94,ENE,66,0.0,1.0,91,0.00,,,0.00,0,Wunderground v.1.15,2013-03-07 14:30:00,
2013-03-07 06:40:00,38.3,35.6,29.95,ENE,64,1.0,1.0,90,0.00,,,0.00,5,Wunderground v.1.15,2013-03-07 14:40:00,
2013-03-07 09:10:00,45.6,39.8,29.95,ENE,66,1.0,1.0,80,0.00,,,0.00,258,Wunderground v.1.15,2013-03-07 17:10:00,
2013-03-07 09:20:00,46.3,40.1,29.95,ENE,61,1.0,1.0,79,0.00,,,0.00,265,Wunderground v.1.15,2013-03-07 17:20:00,
2013-03-07 09:40:00,48.2,40.6,29.95,East,81,0.0,1.0,75,0.00,,,0.00,397,Wunderground v.1.15,2013-03-07 17:40:00,
2013-03-07 09:50:00,49.4,41.1,29.95,ESE,112,1.0,1.0,73,0.00,,,0.00,388,Wunderground v.1.15,2013-03-07 17:50:00,
2013-03-07 10:00:00,49.9,40.9,29.95,WSW,244,1.0,2.0,71,0.00,,,0.00,404,Wunderground v.1.15,2013-03-07 18:00:00,
2013-03-07 10:10:00,49.9,41.2,29.94,WNW,292,2.0,2.0,72,0.00,,,0.00,404,Wunderground v.1.15,2013-03-07 18:10:00,
2013-03-07 10:15:00,50.4,41.7,29.94,WSW,242,2.0,2.0,72,0.00,,,0.00,392,Wunderground v.1.15,2013-03-07 18:15:00,
2013-03-07 10:20:00,50.6,41.5,29.94,WSW,242,2.0,2.0,71,0.00,,,0.00,320,Wunderground v.1.15,2013-03-07 18:20:00,
2013-03-07 10:25:00,50.8,41.7,29.94,WSW,248,1.0,2.0,71,0.00,,,0.00,369,Wunderground v.1.15,2013-03-07 18:25:00,
2013-03-07 10:35:00,51.4,41.2,29.94,WSW,251,1.0,2.0,68,0.00,,,0.00,418,Wunderground v.1.15,2013-03-07 18:35:00,
2013-03-07 10:45:00,52.1,41.9,29.94,WSW,254,1.0,1.0,68,0.00,,,0.00,640,Wunderground v.1.15,2013-03-07 18:45:00,
2013-03-07 10:55:00,53.5,41.6,29.94,North,354,1.0,1.0,64,0.00,,,0.00,392,Wunderground v.1.15,2013-03-07 18:55:00,
2013-03-07 11:05:00,53.4,41.1,29.94,SE,145,2.0,3.0,63,0.00,,,0.00,371,Wunderground v.1.15,2013-03-07 19:05:00,
2013-03-07 11:14:00,54.0,38.6,29.93,ESE,120,3.0,3.0,56,0.00,,,0.00,385,Wunderground v.1.15,2013-03-07 19:14:00,
2013-03-07 11:20:00,54.0,40.0,29.93,ESE,123,2.0,2.0,59,0.00,,,0.00,323,Wunderground v.1.15,2013-03-07 19:20:00,
2013-03-07 12:00:00,55.6,37.7,29.92,NE,54,2.0,2.0,51,0.00,,,0.00,383,Wunderground v.1.15,2013-03-07 20:00:00,
2013-03-07 12:10:00,56.3,37.4,29.92,NE,53,1.0,4.0,49,0.00,,,0.00,415,Wunderground v.1.15,2013-03-07 20:10:00,
2013-03-07 12:15:00,56.3,37.9,29.91,East,95,1.0,4.0,50,0.00,,,0.00,392,Wunderground v.1.15,2013-03-07 20:15:00,
2013-03-07 12:25:00,56.7,38.3,29.91,SE,133,2.0,5.0,50,0.00,,,0.00,325,Wunderground v.1.15,2013-03-07 20:25:00,
2013-03-07 12:34:00,56.1,36.7,29.91,SE,126,3.0,5.0,48,0.00,,,0.00,301,Wunderground v.1.15,2013-03-07 20:34:00,
2013-03-07 12:40:00,55.8,37.4,29.90,ESE,118,2.0,2.0,50,0.00,,,0.00,288,Wunderground v.1.15,2013-03-07 20:40:00,
2013-03-07 12:50:00,56.1,37.7,29.90,ENE,60,2.0,2.0,50,0.00,,,0.00,271,Wunderground v.1.15,2013-03-07 20:50:00,
2013-03-07 12:55:00,56.3,38.4,29.90,SE,125,2.0,4.0,51,0.00,,,0.00,288,Wunderground v.1.15,2013-03-07 20:55:00,
2013-03-07 13:00:00,56.2,37.3,29.90,SE,124,2.0,2.0,49,0.00,,,0.00,295,Wunderground v.1.15,2013-03-07 21:00:00,
2013-03-07 13:10:00,56.4,38.5,29.89,SE,131,2.0,6.0,51,0.00,,,0.00,269,Wunderground v.1.15,2013-03-07 21:10:00,
2013-03-07 13:20:00,56.1,37.7,29.89,ENE,64,3.0,3.0,50,0.00,,,0.00,309,Wunderground v.1.15,2013-03-07 21:20:00,
2013-03-07 13:25:00,56.4,39.0,29.89,ENE,77,2.0,6.0,52,0.00,,,0.00,288,Wunderground v.1.15,2013-03-07 21:25:00,
2013-03-07 13:35:00,56.6,37.1,29.88,SW,233,2.0,3.0,48,0.00,,,0.00,294,Wunderground v.1.15,2013-03-07 21:35:00,
2013-03-07 13:45:00,56.6,38.2,29.88,ESE,116,2.0,7.0,50,0.00,,,0.00,299,Wunderground v.1.15,2013-03-07 21:45:00,
2013-03-07 13:55:00,56.7,38.3,29.88,ESE,120,3.0,3.0,50,0.00,,,0.00,297,Wunderground v.1.15,2013-03-07 21:55:00,
2013-03-07 14:04:00,56.9,37.4,29.88,ESE,104,2.0,2.0,48,0.00,,,0.00,251,Wunderground v.1.15,2013-03-07 22:04:00,
2013-03-07 14:10:00,56.9,36.9,29.88,ENE,73,2.0,2.0,47,0.00,,,0.00,225,Wunderground v.1.15,2013-03-07 22:10:00,
2013-03-07 14:20:00,56.9,36.9,29.87,ENE,64,1.0,1.0,47,0.00,,,0.00,195,Wunderground v.1.15,2013-03-07 22:20:00,
2013-03-07 14:45:00,57.0,37.5,29.87,ENE,60,3.0,3.0,48,0.00,,,0.00,197,Wunderground v.1.15,2013-03-07 22:45:00,
2013-03-07 14:55:00,56.9,37.9,29.87,NE,55,2.0,4.0,49,0.00,,,0.00,151,Wunderground v.1.15,2013-03-07 22:55:00,
2013-03-07 15:04:00,56.6,37.6,29.87,ESE,114,2.0,2.0,49,0.00,,,0.00,178,Wunderground v.1.15,2013-03-07 23:04:00,
2013-03-07 15:10:00,56.7,37.7,29.87,ENE,71,1.0,1.0,49,0.00,,,0.00,206,Wunderground v.1.15,2013-03-07 23:10:00,
2013-03-07 15:20:00,56.8,37.8,29.86,East,79,3.0,3.0,49,0.00,,,0.00,227,Wunderground v.1.15,2013-03-07 23:20:00,
2013-03-07 15:30:00,56.9,38.4,29.86,ESE,106,2.0,2.0,50,0.00,,,0.00,169,Wunderground v.1.15,2013-03-07 23:30:00,
2013-03-07 15:40:00,56.7,37.7,29.86,SE,125,2.0,3.0,49,0.00,,,0.00,123,Wunderground v.1.15,2013-03-07 23:40:00,
2013-03-07 15:50:00,56.7,37.7,29.86,East,86,2.0,2.0,49,0.00,,,0.00,141,Wunderground v.1.15,2013-03-07 23:50:00,
2013-03-07 16:00:00,56.7,38.3,29.86,East,83,2.0,2.0,50,0.00,,,0.00,113,Wunderground v.1.15,2013-03-08 00:00:00,
2013-03-07 16:10:00,56.6,38.2,29.85,ENE,71,2.0,2.0,50,0.00,,,0.00,100,Wunderground v.1.15,2013-03-08 00:10:00,
2013-03-07 16:15:00,56.6,37.6,29.85,NE,54,2.0,4.0,49,0.00,,,0.00,107,Wunderground v.1.15,2013-03-08 00:15:00,
2013-03-07 16:25:00,56.9,37.9,29.85,NE,41,2.0,5.0,49,0.00,,,0.00,84,Wunderground v.1.15,2013-03-08 00:25:00,
2013-03-07 16:30:00,56.8,37.8,29.85,ENE,75,2.0,2.0,49,0.00,,,0.00,70,Wunderground v.1.15,2013-03-08 00:30:00,
2013-03-07 16:39:00,56.5,38.1,29.85,ENE,66,2.0,2.0,50,0.00,,,0.00,69,Wunderground v.1.15,2013-03-08 00:39:00,
2013-03-07 16:45:00,56.4,37.5,29.85,ENE,58,2.0,4.0,49,0.00,,,0.00,65,Wunderground v.1.15,2013-03-08 00:45:00,
2013-03-07 16:55:00,56.3,37.4,29.85,NE,48,2.0,3.0,49,0.00,,,0.00,76,Wunderground v.1.15,2013-03-08 00:55:00,
2013-03-07 17:05:00,56.4,37.5,29.85,ENE,67,1.0,2.0,49,0.00,,,0.00,84,Wunderground v.1.15,2013-03-08 01:05:00,
2013-03-07 17:15:00,56.7,37.2,29.85,ENE,68,2.0,2.0,48,0.00,,,0.00,62,Wunderground v.1.15,2013-03-08 01:15:00,
2013-03-07 17:24:00,56.4,37.5,29.85,ENE,62,1.0,2.0,49,0.00,,,0.00,35,Wunderground v.1.15,2013-03-08 01:24:00,
2013-03-07 17:35:00,55.9,37.5,29.85,ENE,70,1.0,1.0,50,0.00,,,0.00,23,Wunderground v.1.15,2013-03-08 01:35:00,
2013-03-07 17:40:00,55.7,37.8,29.85,ENE,70,1.0,1.0,51,0.00,,,0.00,21,Wunderground v.1.15,2013-03-08 01:40:00,
2013-03-07 17:50:00,55.4,38.1,29.85,NNE,31,1.0,2.0,52,0.00,,,0.00,11,Wunderground v.1.15,2013-03-08 01:50:00,
2013-03-07 17:55:00,55.8,38.4,29.85,North,9,1.0,2.0,52,0.00,,,0.00,7,Wunderground v.1.15,2013-03-08 01:55:00,
2013-03-07 18:00:00,55.7,38.8,29.85,North,9,1.0,1.0,53,0.00,,,0.00,5,Wunderground v.1.15,2013-03-08 02:00:00,
2013-03-07 18:05:00,55.3,38.4,29.85,North,9,0.0,1.0,53,0.00,,,0.00,0,Wunderground v.1.15,2013-03-08 02:05:00,
2013-03-07 18:10:00,55.0,38.6,29.85,NNE,29,0.0,1.0,54,0.00,,,0.00,0,Wunderground v.1.15,2013-03-08 02:10:00,
2013-03-07 18:25:00,54.3,38.5,29.85,ENE,64,0.0,1.0,55,0.00,,,0.00,0,Wunderground v.1.15,2013-03-08 02:25:00,
2013-03-07 18:35:00,53.9,39.0,29.85,ENE,63,0.0,1.0,57,0.00,,,0.00,0,Wunderground v.1.15,2013-03-08 02:35:00,
2013-03-07 18:45:00,53.6,38.7,29.85,ENE,59,0.0,1.0,57,0.00,,,0.00,0,Wunderground v.1.15,2013-03-08 02:45:00,
2013-03-07 18:55:00,53.9,39.0,29.86,NNE,28,0.0,1.0,57,0.00,,,0.00,0,Wunderground v.1.15,2013-03-08 02:55:00,
2013-03-07 19:05:00,53.5,38.6,29.86,NNE,28,0.0,1.0,57,0.00,,,0.00,0,Wunderground v.1.15,2013-03-08 03:05:00,
2013-03-07 19:15:00,53.3,39.3,29.85,NNE,28,0.0,1.0,59,0.00,,,0.00,0,Wunderground v.1.15,2013-03-08 03:15:00,
2013-03-07 19:25:00,53.3,38.9,29.86,North,354,0.0,1.0,58,0.00,,,0.00,0,Wunderground v.1.15,2013-03-08 03:25:00,
2013-03-07 19:30:00,53.2,39.2,29.85,North,354,0.0,1.0,59,0.00,,,0.00,0,Wunderground v.1.15,2013-03-08 03:30:00,
2013-03-07 19:35:00,53.2,38.8,29.85,North,359,0.0,1.0,58,0.00,,,0.00,0,Wunderground v.1.15,2013-03-08 03:35:00,
2013-03-07 19:45:00,53.1,38.3,29.85,NNE,17,0.0,1.0,57,0.00,,,0.00,0,Wunderground v.1.15,2013-03-08 03:45:00,
2013-03-07 19:55:00,53.2,38.8,29.85,NNE,18,0.0,1.0,58,0.00,,,0.00,0,Wunderground v.1.15,2013-03-08 03:55:00,
2013-03-07 20:20:00,52.8,39.3,29.85,North,4,0.0,1.0,60,0.00,,,0.00,0,Wunderground v.1.15,2013-03-08 04:20:00,
2013-03-07 20:25:00,52.7,39.2,29.85,North,10,1.0,1.0,60,0.00,,,0.00,0,Wunderground v.1.15,2013-03-08 04:25:00,
2013-03-07 20:35:00,52.4,39.3,29.85,NE,47,1.0,2.0,61,0.00,,,0.00,0,Wunderground v.1.15,2013-03-08 04:35:00,
2013-03-07 20:40:00,52.2,39.1,29.85,NE,56,1.0,2.0,61,0.00,,,0.00,0,Wunderground v.1.15,2013-03-08 04:40:00,
2013-03-07 20:45:00,52.2,39.1,29.85,NE,41,1.0,2.0,61,0.00,,,0.00,0,Wunderground v.1.15,2013-03-08 04:45:00,
2013-03-07 20:55:00,52.3,38.8,29.86,NNE,31,1.0,1.0,60,0.00,,,0.00,0,Wunderground v.1.15,2013-03-08 04:55:00,
2013-03-07 21:05:00,52.1,39.1,29.86,ENE,59,1.0,1.0,61,0.00,,,0.00,0,Wunderground v.1.15,2013-03-08 05:05:00,
2013-03-07 21:10:00,52.0,39.0,29.86,ENE,57,1.0,1.0,61,0.00,,,0.00,0,Wunderground v.1.15,2013-03-08 05:10:00,
2013-03-07 21:15:00,52.0,39.0,29.86,NE,56,1.0,2.0,61,0.00,,,0.00,0,Wunderground v.1.15,2013-03-08 05:15:00,
2013-03-07 21:20:00,52.1,38.6,29.86,NE,56,1.0,2.0,60,0.00,,,0.00,0,Wunderground v.1.15,2013-03-08 05:20:00,
2013-03-07 21:25:00,52.1,39.1,29.86,NE,56,1.0,2.0,61,0.00,,,0.00,0,Wunderground v.1.15,2013-03-08 05:25:00,
2013-03-07 21:35:00,52.0,39.4,29.86,NE,56,1.0,1.0,62,0.00,,,0.00,0,Wunderground v.1.15,2013-03-08 05:35:00,
2013-03-07 21:45:00,51.9,38.9,29.86,NE,56,1.0,1.0,61,0.00,,,0.00,0,Wunderground v.1.15,2013-03-08 05:45:00,
2013-03-07 21:55:00,52.1,39.1,29.86,NE,44,1.0,1.0,61,0.00,,,0.00,0,Wunderground v.1.15,2013-03-08 05:55:00,
2013-03-07 22:00:00,52.1,39.1,29.86,ENE,62,1.0,1.0,61,0.00,,,0.00,0,Wunderground v.1.15,2013-03-08 06:00:00,
2013-03-07 22:05:00,52.0,39.0,29.86,ENE,62,0.0,1.0,61,0.00,,,0.00,0,Wunderground v.1.15,2013-03-08 06:05:00,
2013-03-07 22:10:00,52.0,39.4,29.87,ENE,62,0.0,1.0,62,0.00,,,0.00,0,Wunderground v.1.15,2013-03-08 06:10:00,
2013-03-07 22:20:00,51.7,38.7,29.87,ENE,62,0.0,1.0,61,0.00,,,0.00,0,Wunderground v.1.15,2013-03-08 06:20:00,
2013-03-07 22:30:00,51.2,39.0,29.86,ENE,62,1.0,1.0,63,0.00,,,0.00,0,Wunderground v.1.15,2013-03-08 06:30:00,
2013-03-07 22:35:00,51.0,38.8,29.86,ENE,62,0.0,1.0,63,0.00,,,0.00,0,Wunderground v.1.15,2013-03-08 06:35:00,
2013-03-07 22:45:00,50.7,39.0,29.86,ENE,62,0.0,1.0,64,0.00,,,0.00,0,Wunderground v.1.15,2013-03-08 06:45:00,
2013-03-07 22:50:00,50.7,38.6,29.86,ENE,62,0.0,1.0,63,0.00,,,0.00,0,Wunderground v.1.15,2013-03-08 06:50:00,
2013-03-07 23:05:00,51.0,38.8,29.86,NE,48,0.0,1.0,63,0.00,,,0.00,0,Wunderground v.1.15,2013-03-08 07:05:00,
2013-03-07 23:15:00,51.1,38.9,29.85,NE,45,0.0,1.0,63,0.00,,,0.00,0,Wunderground v.1.15,2013-03-08 07:15:00,
2013-03-07 23:30:00,50.4,38.7,29.85,NE,45,0.0,1.0,64,0.00,,,0.00,0,Wunderground v.1.15,2013-03-08 07:30:00,
2013-03-07 23:40:00,50.0,38.3,29.85,NE,50,0.0,1.0,64,0.00,,,0.00,0,Wunderground v.1.15,2013-03-08 07:40:00,
2013-03-07 23:50:00,49.5,38.2,29.85,NE,50,0.0,1.0,65,0.00,,,0.00,0,Wunderground v.1.15,2013-03-08 07:50:00,